Location: Mascot Post Office (historical)
(40.2645°N, 99.5462°W)
Time: 17:16:40
(UTC+00:00)

Cosmos 1782 - Pass Details

Date: 14 July 2020
Orbit: 536 x 553 km, 82.5° (Epoch: 04 August)

Event Time Altitude Azimuth Distance (km) Brightness Sun altitude
Rises 05:27:55 0° 358° (N) 2,696 7.5 -25.6°
Reaches altitude 10° 05:30:08 10° 4° (N) 1,801 6.3 -25.8°
Enters shadow 05:32:55 37° 34° (NE) 843 4.0 -25.9°
